Printer-friendly version

IAU Minor Planet Center

Minor Planet Center

MPEC 2007-M37 : 2007 MK13

The following Minor Planet Electronic Circular may be linked-to from your own Web pages, but must not otherwise be redistributed electronically.


Read MPEC 2007-M36 Read MPEC 2007-M38


M.P.E.C. 2007-M37                                Issued 2007 June 24, 15:12 UT

     The Minor Planet Electronic Circulars contain information on unusual
         minor planets and routine data on comets.  They are published
   on behalf of Commission 20 of the International Astronomical Union by the
          Minor Planet Center, Smithsonian Astrophysical Observatory,
                          Cambridge, MA 02138, U.S.A.

             Prepared using the Tamkin Foundation Computer Network

                              MPC@CFA.HARVARD.EDU
          URL http://www.cfa.harvard.edu/iau/mpc.html  ISSN 1523-6714

                                   2007 MK13

Observations:
     K07M13K* C2007 06 21.41173 01 35 25.98 +36 48 47.7          17.4 V EM037703
     K07M13K  C2007 06 21.41982 01 35 39.15 +36 46 30.5          17.8 V EM037703
     K07M13K  C2007 06 21.42788 01 35 52.11 +36 44 13.9          18.1 V EM037703
     K07M13K  C2007 06 21.43596 01 36 05.29 +36 41 54.2          18.4 V EM037703
     K07M13K  C2007 06 21.44242 01 36 15.62 +36 40 04.6          18.4 V EM037703
     K07M13K  C2007 06 21.44282 01 36 16.27 +36 39 58.2          18.5 V EM037703
     K07M13K  C2007 06 21.44324 01 36 16.95 +36 39 51.3          18.6 V EM037703
     K07M13K  C2007 06 21.44366 01 36 17.64 +36 39 43.3          18.1 V EM037703
     K07M13K  C2007 06 21.45892 01 36 42.15 +36 35 22.0          18.6 V EM037703
     K07M13K  C2007 06 21.45935 01 36 42.91 +36 35 13.3          18.4 V EM037703
     K07M13K  C2007 06 21.45978 01 36 43.59 +36 35 06.4          18.8 V EM037703
     K07M13K  C2007 06 21.46020 01 36 44.20 +36 34 59.8          19.3 V EM037703
     K07M13K  C2007 06 22.39008 02 01 16.69 +31 45 29.7          17.8 R EM037651
     K07M13K  C2007 06 22.39054 02 01 17.45 +31 45 20.6          18.0 R EM037651
     K07M13K  C2007 06 22.39145 02 01 18.86 +31 45 04.7          17.9 R EM037651
     K07M13K  C2007 06 22.42646 02 02 11.54 +31 33 55.8          18.7 V EM037703
     K07M13K  C2007 06 22.42687 02 02 12.12 +31 33 47.3          18.6 V EM037703
     K07M13K  C2007 06 22.42729 02 02 12.87 +31 33 37.0          17.5 V EM037703
     K07M13K  C2007 06 22.42771 02 02 13.45 +31 33 31.7          18.6 V EM037703
     K07M13K  C2007 06 22.45982 02 03 01.28 +31 23 17.8          19.1 V EM037G96
     K07M13K  C2007 06 22.46157 02 03 03.86 +31 22 44.4          19.3 V EM037G96
     K07M13K  C2007 06 22.46536 02 03 09.49 +31 21 31.1          19.0 V EM037G96

Observer details:
651 Grasslands Observatory, Tucson.  Observer J. E. McGaha.  0.62-m f/5.1
    Newtonian reflector + CCD.
703 Catalina Sky Survey.  Observer R. E. Hill.  Measurers E. C. Beshore,
    A. Boattini, G. J. Garradd, A. R. Gibbs, A. D. Grauer, R. E. Hill,
    R. A. Kowalski, S. M. Larson, R. H. McNaught.  0.68-m Schmidt + CCD.
G96 Mt. Lemmon Survey.  Observers A. Boattini, E. Beshore.  Measurers
    E. C. Beshore, A. Boattini, G. J. Garradd, A. R. Gibbs, A. D. Grauer,
    R. E. Hill, R. A. Kowalski, S. M. Larson, R. H. McNaught.  1.5-m reflector
    + CCD.

Orbital elements:
2007 MK13                                           PHA, Earth MOID = 0.0330 AU
Epoch 2007 Apr. 10.0 TT = JDT 2454200.5                 MPC
M 222.22546              (2000.0)            P               Q
n   0.95272636     Peri.  260.67792     +0.93965688     +0.06312883
a   1.0228782      Node    95.15868     +0.06113053     +0.93602977
e   0.1382770      Incl.   19.73139     -0.33661254     +0.34621239
P   1.03           H   20.0           G   0.15           U   9
Residuals in seconds of arc
070621 703  0.2+  0.8-    070621 703  0.2-  0.4+    070622 703  0.9-  0.2-
070621 703  0.4+  0.2-    070621 703  0.6+  0.9-    070622 703  0.6+  2.5-
070621 703  0.9-  0.6+    070621 703  0.5+  0.4-    070622 703  0.0   0.2+
070621 703  0.5+  1.0-    070621 703  0.2-  0.2+    070622 G96  0.2-  0.1+
070621 703  0.5-  0.1-    070622 651  0.4-  0.1+    070622 G96  0.4-  0.3+
070621 703  0.4-  0.4+    070622 651  0.4+  0.3-    070622 G96  0.1-  0.4-
070621 703  0.4-  0.7+    070622 651  0.7+  1.1+
070621 703  0.2-  0.2-    070622 703  0.5-  0.4+

Ephemeris:
2007 MK13                a,e,i = 1.02, 0.14, 20                  q = 0.8814
Date    TT    R. A. (2000) Decl.     Delta      r     Elong.  Phase     V
2007 06 19    00 25.31   +46 22.2    0.0561   0.996    67.0   110.0    17.9
2007 06 29    03 58.96   -01 44.8    0.0637   0.972    44.4   133.0    20.0
2007 07 09    05 09.58   -21 10.8    0.118    0.950    52.7   121.6    20.2
2007 07 19    05 41.27   -26 03.9    0.181    0.929    56.6   114.0    20.5
2007 07 29    06 01.86   -26 51.8    0.245    0.911    58.4   108.4    20.8
2007 08 08    06 19.37   -25 54.9    0.305    0.897    59.2   103.8    21.0
2007 08 18    06 36.72   -24 03.0    0.362    0.887    59.7    99.6    21.1
2007 08 28    06 55.09   -21 37.8    0.412    0.882    60.3    95.8    21.2
2007 09 07    07 15.21   -18 52.9    0.456    0.882    61.0    92.2    21.3
2007 09 17    07 37.26   -15 58.5    0.491    0.887    61.9    88.8    21.3
2007 09 27    08 01.26   -12 59.9    0.518    0.897    63.2    85.8    21.3
2007 10 07    08 27.22   -10 01.5    0.536    0.912    64.9    83.0    21.3
2007 10 17    08 55.00   -07 05.2    0.545    0.930    66.9    80.4    21.3
2007 10 27    09 24.44   -04 10.2    0.547    0.951    69.3    78.1    21.3
2007 11 06    09 55.49   -01 15.4    0.543    0.973    72.1    75.8    21.3
2007 11 16    10 27.94   +01 42.5    0.534    0.997    75.2    73.6    21.2
2007 11 26    11 01.60   +04 47.7    0.521    1.020    78.5    71.4    21.1
2007 12 06    11 36.31   +08 03.5    0.506    1.043    82.0    69.3    21.0
2007 12 16    12 11.71   +11 33.6    0.491    1.066    85.6    67.1    21.0
2007 12 26    12 47.40   +15 19.6    0.476    1.086    89.1    64.9    20.9
2008 01 05    13 22.92   +19 21.0    0.464    1.105    92.4    62.8    20.8
2008 01 15    13 57.61   +23 36.1    0.453    1.121    95.4    60.8    20.7
2008 01 25    14 30.80   +28 00.0    0.446    1.135    97.9    59.2    20.6
2008 02 04    15 01.85   +32 28.5    0.440    1.147    99.9    57.9    20.6
2008 02 14    15 29.93   +36 57.4    0.435    1.155   101.4    56.9    20.6
2008 02 24    15 54.34   +41 21.9    0.430    1.161   102.4    56.4    20.5
2008 03 05    16 14.32   +45 39.8    0.425    1.163   102.9    56.2    20.5
2008 03 15    16 28.78   +49 48.3    0.418    1.163   103.1    56.4    20.5
2008 03 25    16 36.55   +53 42.1    0.408    1.159   103.0    57.0    20.4
2008 04 04    16 35.95   +57 15.9    0.394    1.153   102.7    57.8    20.4
2008 04 14    16 24.75   +60 16.5    0.376    1.143   102.2    59.0    20.3
2008 04 24    16 01.27   +62 22.7    0.355    1.131   101.5    60.6    20.2
2008 05 04    15 25.54   +63 04.4    0.329    1.117   100.6    62.6    20.1
2008 05 14    14 41.97   +61 41.6    0.300    1.099    99.2    65.1    19.9
2008 05 24    13 58.65   +57 41.6    0.269    1.080    97.3    68.4    19.7
2008 06 03    13 21.21   +50 37.8    0.237    1.059    94.4    72.8    19.5
2008 06 13    12 50.95   +40 00.8    0.207    1.037    90.1    78.5    19.4
2008 06 23    12 25.45   +25 28.5    0.183    1.013    83.8    85.8    19.4
2008 07 03    12 01.17   +07 31.2    0.171    0.990    76.0    94.3    19.5
2008 07 13    11 34.90   -11 10.4    0.174    0.966    68.5   101.9    19.9
2008 07 23    11 03.80   -26 52.2    0.192    0.944    63.0   106.6    20.3
2008 08 02    10 27.56   -37 35.0    0.221    0.924    59.9   108.1    20.6
2008 08 12    09 49.43   -43 25.4    0.254    0.907    58.6   107.6    20.8
2008 08 22    09 15.27   -45 20.8    0.288    0.894    58.2   105.9    21.0
2008 09 01    08 50.47   -44 33.1    0.319    0.885    58.5   103.7    21.1
2008 09 11    08 36.62   -42 03.7    0.345    0.882    59.2   101.1    21.1
2008 09 21    08 32.92   -38 33.8    0.365    0.883    60.4    98.5    21.1
2008 10 01    08 37.63   -34 31.4    0.378    0.890    62.1    95.8    21.1
2008 10 11    08 48.89   -30 09.4    0.384    0.901    64.3    93.1    21.0
2008 10 21    09 05.43   -25 32.2    0.381    0.916    67.0    90.5    20.9
2008 10 31    09 26.24   -20 39.4    0.373    0.935    70.3    87.7    20.8

Gareth V. Williams           (C) Copyright 2007 MPC           M.P.E.C. 2007-M37

Read MPEC 2007-M36 Read MPEC 2007-M38


Our Web policy. Index to the CBAT/MPC/ICQ pages.


Valid HTML 4.01!